Miscellaneous Local Product
Issued by NWS Hastings, NE

Home | Current Version | Previous Version | Text Only | Print | Product List | Glossary On
Versions: 1 2 3 4 5 6 7 8 9 10 11 12 13 14 15 16 17 18 19 20 21 22 23 24 25 26 27 28 29 30 31 32 33 34 35 36 37 38 39 40 41 42 43 44 45 46 47 48 49 50
778
AXUS43 KGID 221102
MISGRI

GID CWA HOURLY WEATHER ROUNDUP
NATIONAL WEATHER SERVICE HASTINGS NE
500 AM CST WED FEB 22 2017

NOTE: "FAIR" INDICATES FEW OR NO CLOUDS BELOW 12,000 FEET WITH NO
SIGNIFICANT WEATHER AND/OR OBSTRUCTIONS TO VISIBILITY.

...SOUTH CENTRAL NEBRASKA...

CITY           SKY/WX    TMP DP  RH WIND       PRES   REMARKS
GRAND ISLAND   CLEAR     43  30  60 S9        29.67S
HASTINGS       CLOUDY    45  26  47 S6        29.69S
KEARNEY        CLEAR     39  27  60 SW9       29.68S WCI  33
ORD            CLEAR     38  28  67 NW5       29.67S WCI  34
YORK           CLEAR     41  28  60 S8        29.68F
AURORA         CLEAR     47  28  47 S8        29.67F
LEXINGTON      CLEAR     39  28  64 NW12      29.70S WCI  32
HOLDREGE       CLOUDY    40  26  55 W7        29.70R
HEBRON         CLOUDY    50  33  51 SW18      29.69F

...NEBRASKA PANHANDLE...

CITY           SKY/WX    TMP DP  RH WIND       PRES   REMARKS
CHADRON        PTCLDY    40  33  76 SW8       29.77R WCI  34
ALLIANCE       CLEAR     33  30  88 W12       29.81R WCI  24
SCOTTSBLUFF    CLEAR     41  31  67 W15       29.84F
SIDNEY         CLEAR     39  30  70 NW15      29.84F WCI  31

...WESTERN AND NORTH CENTRAL NEBRASKA...

CITY           SKY/WX    TMP DP  RH WIND       PRES   REMARKS
VALENTINE      CLEAR     41  33  73 W9        29.74R
AINSWORTH      CLEAR     41  33  72 W9        29.72R
ONEILL         PTCLDY    41  32  69 SW7       29.67R
BROKEN BOW     CLEAR     39  26  59 W6        29.69S WCI  35
IMPERIAL       CLEAR     46  24  42 NW15      29.83R
NORTH PLATTE   CLEAR     28  23  81 NW7       29.77R WCI  21
MCCOOK         CLEAR     43  23  45 W12       29.74R

...EASTERN NEBRASKA...

CITY           SKY/WX    TMP DP  RH WIND       PRES   REMARKS
NORFOLK        CLEAR     41  32  70 S12       29.65S
SO SIOUX CITY  CLEAR     35  32  88 SE8       29.65S WCI  29
TEKAMAH        CLEAR     43  34  70 S5        29.69R
COLUMBUS       CLEAR     36  28  75 N10       29.69R WCI  28
ALBION         CLEAR     40  31  71 CALM      29.67F
OMAHA EPPLEY   CLEAR     50  35  56 S13       29.69F
OFFUTT AFB     CLEAR     42  33  71 E8        29.70F
MILLARD        CLEAR     53  37  55 S5        29.69F
LINCOLN        CLEAR     43  34  70 S12       29.71F
NEBRASKA CITY  CLEAR     46  31  54 W6        29.74R
BEATRICE       PTCLDY    49  36  59 CALM      29.72F
FALLS CITY     CLEAR     47  34  60 S9        29.74F

...NORTHERN KANSAS...

CITY           SKY/WX    TMP DP  RH WIND       PRES   REMARKS
GOODLAND       CLOUDY    53  17  24 SW16      29.80R
HILL CITY      CLOUDY    51  25  36 W8        29.74R
NORTON         SUNNY     46  18  31 W7        29.73S
PHILLIPSBURG   CLEAR     52  25  35 SW5       29.73R
SMITH CENTER   CLEAR     45  27  49 S6        29.72S
HAYS             N/A     45  26  47 SW8       29.77S
RUSSELL        CLOUDY    47  31  53 S12       29.75S
CONCORDIA      CLOUDY    51  35  54 S21       29.72F
SALINA         CLOUDY    56  35  45 S15       29.77F
TOPEKA         CLOUDY    47  33  58 CALM      29.80R



USA.gov is the U.S. government's official web portal to all federal, state and local government web resources and services.